TRANSPORTER-15 AF (66695 NORAD) Tracking and Keplerian Element Data

This shows tracking and keplerian element data for the satellite.

Feedback or suggestion? Click here.




ElementValue
Catalog66695
NameTRANSPORTER-15 AF
Epoch Orbit325
Epoch Day354.18009808
Epoch Year2025
RAAN65.8363
Inclination97.4411
Eccentricity0.0001198
Argument of Perigee150.3537
Mean Anonmoly209.7765
Mean Motion15.18205896
Decay Rate6.963E-05
L11 66695U 25276AF 25354.18009808 .00006963 00000+0 34364-3 0 9993
L22 66695 97.4411 65.8363 0001198 150.3537 209.7765 15.18205896 3255



Live tracking and technical data element details for TRANSPORTER-15 AF (NORAD 66695). TRANSPORTER-15 AF can be tracked NOW for your location showing map with azimuth and elevation plus other details from your city location.







IsCatalogInMostPopularTable: catalog: 66695, numindb: 12
Update: records affected: 1



GetName: 66695 TRANSPORTER-15 AF

Hit Count: updated at: Tue, 21 Apr 2026 19:08:47 GMT